Regional Weather Roundup
Issued by NWS Portland, ME

Current Version | Previous Version | Text Only | Print | Product List | Glossary Off
Versions: 1 2 3 4 5 6 7 8 9 10 11 12 13 14 15 16 17 18 19 20 21 22 23 24 25 26 27 28 29 30 31 32 33 34 35 36 37 38 39 40 41 42 43 44 45 46 47 48 49 50
000 ASUS41 KGYX 161905 RWRGYX WEATHER ROUNDUP FOR MAINE AND NEW HAMPSHIRE NATIONAL WEATHER SERVICE GRAY ME 300 PM EDT THU AUG 16 2018 MEZ002-005-006-010-012-015-018-020-021-024-026-027-029-162000- MAINE CITY SKY/WX TMP DP RH WIND PRES REMARKS PORTLAND FAIR 82 67 60 SW7 29.95S SANFORD FAIR 84 57 39 W15 29.98S BAR HARBOR FAIR 80 60 50 VRB6 29.95S WISCASSET FAIR 84 63 49 VRB6 29.96S ROCKLAND PTSUNNY 75 67 76 SE8 29.95S FRYEBURG FAIR 83 55 38 NW9G17 29.99R LEWISTONAUBURN PTSUNNY 79 57 46 NW8 29.98R AUGUSTA FAIR 80 57 45 NW9G21 29.99R WATERVILLE FAIR 78 55 44 NW10 29.97R BANGOR FAIR 79 55 43 N13G18 29.97R GREENVILLE N/A 70 52 52 NW12 30.01R MILLINOCKET PTSUNNY 75 52 44 N7 29.99R HOULTON PTSUNNY 75 59 57 N8G16 29.95S PRESQUE ISLE CLOUDY 69 56 62 N9 30.00R FRENCHVILLE FAIR 68 51 54 NW13 30.01R CARIBOU CLOUDY 70 53 54 N9 29.98R $$ NHZ002-005-008-009-011-012-014-162000- NEW HAMPSHIRE CITY SKY/WX TMP DP RH WIND PRES REMARKS PORTSMOUTH MOSUNNY 86 62 43 NW13G20 29.95S ROCHESTER PTSUNNY 82 65 56 NW12 29.98R MANCHESTER NOT AVBL CONCORD FAIR 86 60 41 NW12 29.99S LACONIA FAIR 82 60 47 NW12 30.01 PLYMOUTH FAIR 81 55 41 W7G17 30.00F BERLIN FAIR 77 54 44 VRB7 30.04R WHITEFIELD FAIR 77 57 50 W8G17 30.04S JAFFREY NOT AVBL LEBANON FAIR 85 59 41 N12G20 30.01F MT WASHINGTON NOT AVBL $$ VTZ005-007-008-162000- VERMONT CITY SKY/WX TMP DP RH WIND PRES REMARKS ST JOHNSBURY N/A 76 54 46 MISG 30.02F MONTPELIER FAIR 76 59 55 N13G21 30.10S BURLINGTON FAIR 79 56 45 NE9 30.04F $$ MAZ007-012-024-CTZ003-RIZ002-NYZ038-NYZ072-162000- SOUTHERN NEW ENGLAND AND NY CITY SKY/WX TMP DP RH WIND PRES REMARKS BOSTON PTSUNNY 90 67 46 W10 29.96F HX 93 WORCESTER FAIR 83 69 62 W10 30.04S NANTUCKET FAIR 82 74 76 W18 30.00S PROVIDENCE FAIR 89 69 51 NW15 30.00S HX 93 HARTFORD FAIR 88 68 51 W8 30.02S HX 91 ALBANY FAIR 87 67 51 W14 30.03S HX 90 NEW YORK CITY FAIR 92 61 35 W14 30.04S HX 92 $$ ANZ081-ANZ082-ANZ150-NHZ014-MEZ023>029-162000- COASTAL MARINE OBSERVATIONS STATION/POSITION TIME TEMP WIND PRES WAVE AIR SEA DIR/SP/G HT/PER (UTC) (F) (DEG/KT/KT) (MB) (FT/S) MOUNT DESERT ROC 1800 63 220/ 16/ 16 1014.0F MATINICUS ROCK 1800 69 230/ 11/ 11 1014.0R ISLE OF SHOALS 1800 80 210/ 5/ 5 1014.1F JEFFREYS LEDGE 1836 70 N/A 2/ 7 $$ .............KEY.............. WCI - WIND CHILL TC - TEMPERATURE IN CELSIUS VSB - VISIBILITY IN MILES HX - HEAT INDEX FAIR- INDICATES FEW OR NO CLOUDS BELOW 12,000 FT, WITH NO SIGNIFICANT WEATHER AND/OR OBSTRUCTIONS TO VISIBILITY.

USA.gov is the U.S. government's official web portal to all federal, state and local government web resources and services.